North Adams, MA

3:26 AM EST on November 21, 2017 (GMT -0500)
Harriman And West

Weather History for KAQW - April, 2013

Change the Weather History Date:

Friday, April 5, 2013

  Actual Average Record
Temperature  
Mean Temperature 41 °F -  
Max Temperature 53 °F 48 °F 63 °F (1997)
Min Temperature 30 °F 28 °F 0 °F (2016)
Degree Days  
Heating Degree Days 24    
Moisture  
Dew Point 19 °F    
Average Humidity 42    
Maximum Humidity 64    
Minimum Humidity 21    
Precipitation  
Precipitation 0.00 in - - ()
Sea Level Pressure  
Sea Level Pressure 29.87 in    
Wind  
Wind Speed 5 mph (West)    
Max Wind Speed 21 mph    
Max Gust Speed 30 mph    
Visibility 10 miles    
Events Snow    
Averages and records for this station are not official NWS values.
T = Trace of Precipitation, MM = Missing Value Source: NWS Daily Summary

Daily Weather History Graph

Daily Weather History Graph

Search for Another Location

Airport or City:

Trip Planner

Search our weather history database for the weather conditions in past years. The results will help you decide how hot, cold, wet, or windy it might be!

Date:

Astronomy

Apr. 05, 2013 Rise Set
Actual Time 6:27 AM EDT 7:23 PM EDT
Civil Twilight 5:58 AM EDT 7:52 PM EDT
Nautical Twilight 5:24 AM EDT 8:26 PM EDT
Astronomical Twilight 4:49 AM EDT 9:02 PM EDT
Moon 3:39 AM EDT (4/5) 2:38 PM EDT (4/5)
Length of Visible Light 13h 53m
Length of Day
12h 55m
Waning Crescent, 24% of the Moon is Illuminated
Apr 5
Waning Crescent
Apr 10
New
Apr 18
First Quarter
Apr 25
Full
May 2
Last Quarter

Hourly Weather History & Observations

Time (EDT) Temp. Windchill Dew Point Humidity Pressure Visibility Wind Dir Wind Speed Gust Speed Precip Events Conditions
12:52 AM 41.0 °F - 17.1 °F 38% 29.98 in 10.0 mi Calm Calm - N/A   Clear
1:52 AM 41.0 °F 38.0 °F 17.1 °F 38% 29.96 in 10.0 mi Variable 4.6 mph - N/A   Clear
2:52 AM 34.0 °F 31.0 °F 19.0 °F 54% 29.95 in 10.0 mi SSW 3.5 mph - N/A   Clear
3:52 AM 34.0 °F - 19.0 °F 54% 29.93 in 10.0 mi Calm Calm - N/A   Clear
4:52 AM 33.1 °F - 19.0 °F 56% 29.92 in 10.0 mi Calm Calm - N/A   Clear
5:52 AM 30.9 °F - 19.0 °F 61% 29.91 in 10.0 mi Calm Calm - N/A   Clear
6:52 AM 30.0 °F - 19.0 °F 64% 29.91 in 10.0 mi Calm Calm - N/A   Clear
8:52 AM 39.0 °F 36.8 °F 19.0 °F 45% 29.89 in 10.0 mi NNE 3.5 mph - N/A   Clear
9:52 AM 44.1 °F 40.8 °F 14.0 °F 30% 29.87 in 10.0 mi SSW 5.8 mph - N/A   Clear
10:52 AM 48.0 °F - 12.9 °F 24% 29.83 in 10.0 mi Variable 3.5 mph - N/A   Clear
11:52 AM 52.0 °F - 12.9 °F 21% 29.82 in 10.0 mi West 6.9 mph - N/A   Scattered Clouds
12:52 PM 52.0 °F - 16.0 °F 24% 29.79 in 10.0 mi West 12.7 mph 18.4 mph N/A   Mostly Cloudy
1:52 PM 51.1 °F - 21.0 °F 31% 29.77 in 10.0 mi West 15.0 mph 25.3 mph N/A   Scattered Clouds
2:52 PM 51.1 °F - 19.9 °F 29% 29.75 in 10.0 mi West 13.8 mph 24.2 mph N/A   Partly Cloudy
3:52 PM 51.1 °F - 19.9 °F 29% 29.75 in 10.0 mi West 13.8 mph 23.0 mph N/A   Clear
4:52 PM 51.1 °F - 19.9 °F 29% 29.76 in 10.0 mi West 11.5 mph 20.7 mph N/A   Partly Cloudy
5:52 PM 48.0 °F - 18.0 °F 30% 29.78 in 10.0 mi West 16.1 mph 28.8 mph N/A   Partly Cloudy
6:52 PM 45.0 °F 36.9 °F 17.1 °F 33% 29.83 in 10.0 mi West 20.7 mph 29.9 mph N/A   Mostly Cloudy
7:52 PM 42.1 °F 36.6 °F 19.9 °F 41% 29.88 in 10.0 mi NW 9.2 mph 19.6 mph N/A   Overcast
8:52 PM 39.0 °F 32.3 °F 21.0 °F 49% 29.91 in 10.0 mi West 10.4 mph 20.7 mph N/A   Overcast
9:52 PM 37.9 °F 30.5 °F 21.0 °F 51% 29.93 in 10.0 mi West 11.5 mph 20.7 mph N/A   Overcast
10:52 PM 36.0 °F 28.0 °F 24.1 °F 62% 29.95 in 10.0 mi West 11.5 mph 21.9 mph N/A   Overcast
11:52 PM 35.1 °F 27.9 °F 24.1 °F 64% 29.95 in 4.0 mi West 9.2 mph 19.6 mph 0.00 in Snow Light Snow